Location: Grand Lay
(47.3253°N, 0.9468°E)
Time: 23:14:01
(UTC+00:00)

Cosmos 2278 Rocket - Pass Details

Date: 18 January 2026
Orbit: 839 x 846 km, 71.0° (Epoch: 16 February)

Event Time Altitude Azimuth Distance (km) Brightness Sun altitude
Exits shadow 05:56:18 10° 230° (SW) 2,491 4.3 -16.6°
Reaches altitude 10° 05:56:24 10° 230° (SW) 2,452 4.3 -16.6°
Maximum altitude 06:01:49 47° 304° (NW) 1,106 2.4 -15.7°
Drops below altitude 10° 06:07:17 10° 18° (NNE) 2,471 4.7 -14.8°
Sets 06:09:50 0° 25° (NNE) 3,410 5.5 -14.4°
